Home > Weather > Suzuka > Past weeks

Flag for Japan Weather for the Past 2 Weeks in Suzuka, Japan

Now
53 °F

Cool.


Feels Like: 50 °F
Forecast: 50 / 69 °F
Wind: 10 mph from Northwest

Location: Tsu

Current Time: Apr 29, 2016 at 11:22:25 PM

Latest Report: Apr 29, 2016 at 10:00 PM


Visibility: N/A

Pressure: 29.93 "Hg

Humidity: 56%

Dew Point: 38 °F

Location of SuzukaLocation

Historic Weather in Suzuka — Graph

°F

Suzuka Temperature Yesterday

Maximum temperature yesterday: 64 °F (at 2:00 PM)
Minimum temperature yesterday: 57 °F (at 11:00 PM)
Average temperature yesterday: 60 °F

High & Low Weather Summary for the Past Weeks

 TemperatureHumidityPressure
High85 °F (Apr 17, 3:00 PM)97% (Apr 28, 9:00 AM)30.27 "Hg (Apr 28, 9:00 AM)
Low46 °F (Apr 16, 5:00 AM)20% (Apr 17, 6:00 PM)29.41 "Hg (Apr 28, 1:00 PM)
Average61 °F67%29.93 "Hg
* Reported Apr 14 10:00 PM — Apr 29 10:00 PM, Suzuka, Weather by CustomWeather, © 2016

Note: Actual official high and low records may vary slightly from our data, if they occured in-between our weather recording intervals... More about our weather records

Advertising

Suzuka Weather History for the Previous 24 Hours

Scroll right to see more
 ConditionsComfort  
Time TempWeatherWind HumidityBarometerVisibility
10:00 PM
Fri, Apr 29
53 °FCool.10 mph56%29.93 "HgN/A
9:00 PM54 °FPassing clouds.9 mph54%29.92 "Hg19 mi
8:00 PM54 °FCool.10 mph53%29.89 "HgN/A
7:00 PM55 °FRefreshingly cool.15 mph45%29.86 "HgN/A
6:00 PM57 °FRefreshingly cool.16 mph41%29.84 "HgN/A
5:00 PM58 °FRefreshingly cool.17 mph40%29.80 "HgN/A
4:00 PM59 °FRefreshingly cool.22 mph39%29.77 "HgN/A
3:00 PM60 °FPassing clouds.20 mph39%29.73 "Hg25 mi
2:00 PM62 °FRefreshingly cool.20 mph36%29.73 "HgN/A
5:00 AM54 °FCool.12 mph57%29.62 "HgN/A
4:00 AM55 °FCool.12 mph55%29.61 "HgN/A
3:00 AM55 °FRefreshingly cool.12 mph59%29.60 "HgN/A
2:00 AM56 °FRefreshingly cool.12 mph58%29.58 "HgN/A
1:00 AM56 °FCool.16 mph63%29.56 "HgN/A
12:00 AM57 °FCool.15 mph63%29.55 "HgN/A
11:00 PM
Thu, Apr 28
57 °FCool.18 mph72%29.54 "HgN/A
Weather by CustomWeather, © 2016

See weather overviewHow to use our weather pages